Miscellaneous Local Product
Issued by NWS Hastings, NE

Home | Current Version | Previous Version | Graphics & Text | Print | Product List | Glossary On
Versions: 1 2 3 4 5 6 7 8 9 10 11 12 13 14 15 16 17 18 19 20 21 22 23 24 25 26 27 28 29 30 31 32 33 34 35 36 37 38 39 40 41 42 43 44 45 46 47 48 49 50
000
AXUS43 KGID 212102
MISGRI

GID CWA HOURLY WEATHER ROUNDUP
NATIONAL WEATHER SERVICE HASTINGS NE
300 PM CST FRI NOV 21 2014

NOTE: "FAIR" INDICATES FEW OR NO CLOUDS BELOW 12,000 FEET WITH NO
SIGNIFICANT WEATHER AND/OR OBSTRUCTIONS TO VISIBILITY.

...SOUTH CENTRAL NEBRASKA...

CITY           SKY/WX    TMP DP  RH WIND       PRES   REMARKS
GRAND ISLAND   PTSUNNY   46  27  47 S7        29.98F
HASTINGS       PTSUNNY   48  24  39 S6        29.98F
KEARNEY        CLOUDY    48  30  49 S13       29.97F
ORD            PTSUNNY   50  31  48 S16       29.91F
YORK           PTSUNNY   37  28  70 S10       30.02F WCI  30
AURORA         PTSUNNY   44  28  53 S8        30.00F
LEXINGTON      MOSUNNY   51  32  49 S12       29.93F
HOLDREGE       MOSUNNY   49  29  47 S10       29.96F
HEBRON         MOSUNNY   48  29  47 S7        30.02F

...NEBRASKA PANHANDLE...

CITY           SKY/WX    TMP DP  RH WIND       PRES   REMARKS
CHADRON        PTSUNNY   49  25  39 CALM      29.83F
ALLIANCE       PTSUNNY   54  19  25 W18G29    29.85F
SCOTTSBLUFF    PTSUNNY   54  22  28 W10       29.86F
SIDNEY         PTSUNNY   58  21  24 CALM      29.89F

...WESTERN AND NORTH CENTRAL NEBRASKA...

CITY           SKY/WX    TMP DP  RH WIND       PRES   REMARKS
VALENTINE      CLOUDY    48  32  53 SW9       29.84S
AINSWORTH      CLOUDY    53  31  42 SW7       29.85S
ONEILL         CLOUDY    46  34  63 S14       29.88F
BROKEN BOW     CLOUDY    52  31  44 S17G26    29.91F
IMPERIAL       MOSUNNY   56  28  34 S9        29.89F
NORTH PLATTE   MOSUNNY   54  28  36 SW10      29.91S
MCCOOK         SUNNY     57  33  40 S14G21    29.91F

...EASTERN NEBRASKA...

CITY           SKY/WX    TMP DP  RH WIND       PRES   REMARKS
NORFOLK        CLOUDY    37  28  70 S15       29.96F WCI  28
SO SIOUX CITY  CLOUDY    39  26  59 S14       30.02F WCI  31
TEKAMAH        PTSUNNY   37  26  64 S15       30.06F WCI  28
COLUMBUS       PTSUNNY   39  27  60 S12       30.02F WCI  32
ALBION         PTSUNNY   40  27  59 S12       29.96F WCI  33
OMAHA EPPLEY   PTSUNNY   39  25  57 S12       30.08F WCI  32
OFFUTT AFB     CLOUDY    39  26  59 S12       30.06F WCI  32
MILLARD        PTSUNNY   38  25  61 S8        30.06F WCI  32
LINCOLN        PTSUNNY   44  28  53 S9        30.05F
NEBRASKA CITY  CLOUDY    41  21  46 SE10      30.07F
BEATRICE       CLOUDY    45  31  56 SE8       30.04F
FALLS CITY     LGT RAIN  38  31  76 SE14      30.09F WCI  30

...NORTHERN KANSAS...

CITY           SKY/WX    TMP DP  RH WIND       PRES   REMARKS
GOODLAND       SUNNY     54  30  40 S15       29.90F
HILL CITY      SUNNY     54  34  46 S7        29.96F
NORTON         CLEAR     54  27  35 SE10      29.94S
PHILLIPSBURG   SUNNY     52  28  40 E8        29.98F
SMITH CENTER   CLOUDY    45  27  49 SE9       30.00S
BELOIT         CLOUDY    41  34  75 SE8       30.02S
HAYS           CLOUDY    43  30  61 SE7       29.99F
RUSSELL        CLOUDY    42  34  73 SE9       29.99F
CONCORDIA      CLOUDY    41  34  76 SE10      30.03F
SALINA         CLOUDY    38  35  89 E6        30.05F FOG     WCI  33
TOPEKA         CLOUDY    39  36  89 E3        30.10F FOG



USA.gov is the U.S. government's official web portal to all federal, state and local government web resources and services.